Flag Weather past 2 weeks in Montfoort, Netherlands

Now
43 °F

Overcast.


Feels Like: 40 °F
Forecast: 38 / 50 °F
Wind: 5 mph from East

Location: De Bilt

Current Time: Nov 21, 2014 at 10:01:25 PM

Latest Report: Nov 21, 2014 at 9:00 PM


Visibility: 7 mi

Pressure: 30.11 "Hg

Humidity: 81%

Dew point: 38 °F

Location of MontfoortLocation

Historic Weather in Montfoort — Graph

°F

Montfoort temperature yesterday

Maximum temperature yesterday: 46 °F (at 1:00 PM)
Minimum temperature yesterday: 44 °F (at 10:00 PM)
Average temperature yesterday: 45 °F

Past Weeks' High & Low Weather Summary

 TemperatureHumidityPressure
High56 °F (Nov 13, 2:00 PM)100% (Nov 10, 5:00 AM)30.34 "Hg (Nov 10, 5:00 AM)
Low35 °F (Nov 21, 8:00 AM)67% (Nov 10, 4:00 PM)29.47 "Hg (Nov 16, 5:00 PM)
Average48 °F88%29.80 "Hg
* Reported Nov 6 8:00 PM — Nov 21 8:00 PM, Montfoort, Weather by CustomWeather, © 2014

Note: Actual official high and low records may vary slightly from our data, if they occured in-between our weather recording intervals... More about our weather records

Advertising

Montfoort weather history for previous 24 hours

 ConditionsComfort  
Time TempWeatherWind HumidityBarometerVisibility
8:00 PM
Nov 21
43 °FOvercast.5 mph83%30.11 "Hg7 mi
7:00 PM42 °FOvercast.5 mph82%30.13 "Hg7 mi
6:00 PM43 °FOvercast.3 mph81%30.14 "Hg8 mi
5:00 PM44 °FClear.5 mph79%30.13 "Hg9 mi
4:00 PM46 °FSunny.5 mph75%30.13 "Hg10 mi
3:00 PM47 °FPassing clouds.6 mph70%30.14 "Hg12 mi
2:00 PM48 °FSunny.6 mph69%30.16 "Hg11 mi
1:00 PM47 °FPassing clouds.5 mph75%30.18 "Hg8 mi
12:00 PM44 °FSunny.3 mph80%30.21 "Hg7 mi
11:00 AM42 °FFog.3 mph84%30.23 "Hg5 mi
10:00 AM38 °FFog.5 mph89%30.24 "Hg3 mi
9:00 AM35 °FFog.3 mph94%30.24 "Hg2 mi
8:00 AM35 °FFog.2 mph93%30.24 "Hg2 mi
7:00 AM36 °FFog.3 mph93%30.24 "Hg2 mi
6:00 AM36 °FFog.3 mph94%30.26 "Hg2 mi
5:00 AM37 °FFog.3 mph92%30.26 "Hg2 mi
4:00 AM38 °FFog.3 mph91%30.27 "Hg2 mi
3:00 AM39 °FFog.3 mph92%30.28 "Hg2 mi
2:00 AM39 °FFog.3 mph91%30.29 "Hg3 mi
1:00 AM41 °FFog.2 mph88%30.31 "Hg3 mi
12:00 AM44 °FFog.5 mph84%30.31 "Hg3 mi
11:00 PM
Nov 20
44 °FFog.6 mph87%30.32 "Hg4 mi
10:00 PM44 °FFog.5 mph87%30.33 "Hg4 mi
Weather by CustomWeather, © 2014

See weather overviewHow to use our weather pages